Home   Weather   Davos   Past weeks

Flag for Switzerland Past Weather in Davos, Graubünden, Switzerland — Yesterday and Last 2 Weeks

Now
60 °F

Refreshingly cool.


Feels Like: 59 °F
Forecast: 21 / 32 °F
Wind: 7 mph from South

Location: Chur

Current Time: Feb 23, 2017 at 7:44:21 pm

Latest Report: Feb 23, 2017 at 6:00 pm


Visibility: N/A

Pressure: 29.62 "Hg (24.68 "Hg at 1540m altitude)

Humidity: 25%

Dew Point: 24 °F

Location of DavosLocation

Past Weather in Davos — Graph

°F

Davos Temperature Yesterday

Maximum temperature yesterday: 58 °F (at 2:00 pm)
Minimum temperature yesterday: 41 °F (at 5:00 am)
Average temperature yesterday: 48 °F

High & Low Weather Summary for the Past Weeks

 TemperatureHumidityPressure
High67 °F (Feb 23, 3:00 pm)96% (Feb 11, 5:00 am)30.67 "Hg (Feb 11, 5:00 am)
Low30 °F (Feb 10, 7:00 am)17% (Feb 23, 4:00 pm)29.59 "Hg (Feb 23, 4:00 pm)
Average42 °F65%30.27 "Hg
* Reported Feb 8 6:00 pm — Feb 23 6:00 pm, Davos, Weather by CustomWeather, © 2017

Note: Actual official high and low records may vary slightly from our data, if they occured in-between our weather recording intervals... More about our weather records

Advertising

Davos Weather History for the Previous 24 Hours

Scroll right to see more
 ConditionsComfort  
Time TempWeatherWind HumidityBarometerVisibility
6:00 pm
Thu, Feb 23
60 °FRefreshingly cool.7 mph25%29.62 "HgN/A
5:00 pm63 °FMild.6 mph26%29.60 "HgN/A
4:00 pm67 °FPartly sunny.8 mph17%29.59 "Hg12 mi
3:00 pm67 °FMild.9 mph18%29.62 "HgN/A
2:00 pm66 °FMild.8 mph23%29.66 "HgN/A
1:00 pm62 °FPartly sunny.8 mph30%29.72 "Hg12 mi
12:00 pm58 °FRefreshingly cool.9 mph34%29.80 "HgN/A
11:00 am52 °FCool.10 mph39%29.87 "HgN/A
10:00 am47 °FScattered clouds.12 mph52%29.93 "Hg16 mi
9:00 am41 °FQuite cool.7 mph64%29.98 "HgN/A
8:00 am38 °FChilly.5 mph74%30.02 "HgN/A
7:00 am37 °FPassing clouds.7 mph82%30.03 "Hg16 mi
6:00 am35 °FChilly.3 mph86%30.05 "HgN/A
5:00 am39 °FChilly.1 mph80%30.04 "HgN/A
4:00 am39 °FFog.3 mph82%30.03 "Hg9 mi
3:00 am41 °FQuite cool.5 mph79%30.03 "HgN/A
2:00 am41 °FQuite cool.3 mph82%30.04 "HgN/A
1:00 am42 °FPassing clouds.2 mph81%30.05 "Hg9 mi
12:00 am43 °FQuite cool.1 mph84%30.05 "HgN/A
11:00 pm
Wed, Feb 22
44 °FQuite cool.3 mph84%30.05 "HgN/A
10:00 pm44 °FPassing clouds.2 mph84%30.05 "Hg9 mi
9:00 pm46 °FCool.1 mph82%30.04 "HgN/A
8:00 pm49 °FCool.1 mph74%30.01 "HgN/A
7:00 pm52 °FPassing clouds.2 mph68%30.00 "Hg11 mi
Weather by CustomWeather, © 2017

See weather overviewHow to use our weather pages